Location: Unspecified
(0.0000°N, 0.0000°E)
Time: 06:36:03
(UTC+00:00)

SWISSCUBE - Visible Passes

Search period start: 30 November 2022 00:00
Search period end: 10 December 2022 00:00
Orbit: 698 x 707 km, 98.5° (Epoch: 29 November)

Date Brightness Start Highest point End Pass type
(mag) Time Alt. Az. Time Alt. Az. Time Alt. Az.
01 Dec ? 20:17:21 15° S 20:17:21 15° S 20:18:09 10° S visible
03 Dec ? 20:04:54 15° S 20:04:54 15° S 20:05:48 10° S visible
04 Dec ? 20:48:07 12° SSW 20:48:07 12° SSW 20:48:26 10° SSW visible
05 Dec ? 19:52:27 14° SSE 19:52:27 14° SSE 19:53:15 10° SSE visible
06 Dec ? 20:35:39 15° SSW 20:35:39 15° SSW 20:36:26 10° SSW visible
07 Dec ? 19:40:00 12° SSE 19:40:00 12° SSE 19:40:29 10° SSE visible
08 Dec ? 20:23:13 17° S 20:23:13 17° S 20:24:16 10° S visible
